Perry, IA

4:36 AM CST on February 23, 2017 (GMT -0600)
Perry Municipal

Weather History for KPRO - July, 2014

Change the Weather History Date:

Wednesday, July 23, 2014

  Actual Average Record
Temperature  
Mean Temperature 70 °F -  
Max Temperature 80 °F 83 °F 101 °F (1983)
Min Temperature 60 °F 62 °F 51 °F (1970)
Cooling Degree Days 5    
Growing Degree Days 20 (Base 50)    
Moisture  
Dew Point 60 °F    
Average Humidity 72    
Maximum Humidity 94    
Minimum Humidity 45    
Precipitation  
Precipitation 0.00 in - - ()
Sea Level Pressure  
Sea Level Pressure 30.19 in    
Wind  
Wind Speed 5 mph (NNE)    
Max Wind Speed 9 mph    
Max Gust Speed -    
Visibility 10 miles    
Events      
Averages and records for this station are not official NWS values.
T = Trace of Precipitation, MM = Missing Value Source: NWS Daily Summary

Daily Weather History Graph

Daily Weather History Graph

Search for Another Location

Airport or City:

Trip Planner

Search our weather history database for the weather conditions in past years. The results will help you decide how hot, cold, wet, or windy it might be!

Date:

Astronomy

Jul. 23, 2014 Rise Set
Actual Time 6:01 AM CDT 8:43 PM CDT
Civil Twilight 5:29 AM CDT 9:16 PM CDT
Nautical Twilight 4:48 AM CDT 9:56 PM CDT
Astronomical Twilight 4:02 AM CDT 10:42 PM CDT
Moon 3:21 AM CDT 6:12 PM CDT
Length of Visible Light 15h 46m
Length of Day
14h 41m
Waning Crescent, 9% of the Moon is Illuminated
Jul 23
Waning Crescent
Jul 26
New
Aug 3
First Quarter
Aug 10
Full
Aug 17
Last Quarter

Hourly Weather History & Observations

Time (CDT) Temp. Heat Index Dew Point Humidity Pressure Visibility Wind Dir Wind Speed Gust Speed Precip Events Conditions
12:15 AM 69.4 °F - 63.5 °F 81% 30.15 in 10.0 mi North 5.8 mph - N/A   Clear
12:35 AM 69.8 °F - 63.0 °F 79% 30.16 in 10.0 mi North 8.1 mph - N/A   Clear
12:55 AM 69.1 °F - 62.2 °F 79% 30.16 in 10.0 mi North 6.9 mph - N/A   Clear
1:15 AM 68.0 °F - 61.7 °F 80% 30.17 in 10.0 mi North 5.8 mph - N/A   Clear
1:35 AM 66.6 °F - 61.2 °F 83% 30.17 in 10.0 mi North 6.9 mph - N/A   Clear
1:55 AM 66.2 °F - 60.4 °F 82% 30.17 in 10.0 mi North 6.9 mph - N/A   Clear
2:15 AM 66.2 °F - 59.9 °F 80% 30.18 in 10.0 mi North 5.8 mph - N/A   Clear
2:35 AM 65.3 °F - 59.7 °F 82% 30.17 in 10.0 mi North 5.8 mph - N/A   Clear
2:55 AM 64.6 °F - 59.4 °F 83% 30.17 in 10.0 mi North 5.8 mph - N/A   Clear
3:15 AM 63.9 °F - 59.2 °F 85% 30.18 in 10.0 mi NNW 5.8 mph - N/A   Clear
3:35 AM 63.5 °F - 59.2 °F 86% 30.18 in 10.0 mi NNW 4.6 mph - N/A   Clear
3:55 AM 62.6 °F - 59.0 °F 88% 30.17 in 10.0 mi North 3.5 mph - N/A   Clear
4:15 AM 61.7 °F - 59.2 °F 91% 30.18 in 10.0 mi NNW 4.6 mph - N/A   Clear
4:35 AM 61.7 °F - 59.0 °F 91% 30.18 in 10.0 mi North 4.6 mph - N/A   Clear
4:55 AM 61.0 °F - 58.6 °F 92% 30.18 in 10.0 mi North 4.6 mph - N/A   Clear
5:15 AM 60.8 °F - 58.5 °F 92% 30.18 in 10.0 mi North 5.8 mph - N/A   Clear
5:35 AM 61.2 °F - 58.5 °F 91% 30.18 in 10.0 mi North 4.6 mph - N/A   Clear
5:55 AM 60.8 °F - 58.3 °F 91% 30.20 in 10.0 mi NNW 6.9 mph - N/A   Clear
6:15 AM 61.0 °F - 58.1 °F 90% 30.19 in 10.0 mi North 5.8 mph - N/A   Clear
6:35 AM 60.8 °F - 58.1 °F 91% 30.19 in 10.0 mi North 5.8 mph - N/A   Clear
6:55 AM 61.3 °F - 58.5 °F 90% 30.20 in 10.0 mi North 5.8 mph - N/A   Clear
7:15 AM 62.6 °F - 58.6 °F 87% 30.20 in 10.0 mi North 5.8 mph - N/A   Clear
7:35 AM 64.2 °F - 59.2 °F 84% 30.20 in 10.0 mi North 5.8 mph - N/A   Clear
7:55 AM 65.3 °F - 59.4 °F 81% 30.21 in 10.0 mi North 6.9 mph - N/A   Clear
8:15 AM 65.7 °F - 59.5 °F 81% 30.22 in 10.0 mi North 6.9 mph - N/A   Clear
8:35 AM 67.1 °F - 60.3 °F 79% 30.23 in 10.0 mi North 5.8 mph - N/A   Clear
8:55 AM 68.4 °F - 61.0 °F 77% 30.23 in 10.0 mi North 4.6 mph - N/A   Clear
9:15 AM 69.4 °F - 62.1 °F 77% 30.23 in 10.0 mi North 6.9 mph - N/A   Clear
9:35 AM 70.3 °F - 62.4 °F 76% 30.22 in 10.0 mi North 4.6 mph - N/A   Clear
9:55 AM 71.1 °F - 63.1 °F 76% 30.22 in 10.0 mi NNE 3.5 mph - N/A   Clear
10:15 AM 72.7 °F - 63.7 °F 73% 30.23 in 10.0 mi North 6.9 mph - N/A   Clear
10:35 AM 73.8 °F - 64.0 °F 72% 30.23 in 10.0 mi NNE 4.6 mph - N/A   Clear
10:55 AM 74.5 °F - 64.0 °F 70% 30.23 in 10.0 mi ENE 5.8 mph - N/A   Clear
11:15 AM 76.1 °F - 61.9 °F 61% 30.23 in 10.0 mi ENE 5.8 mph - N/A   Clear
11:35 AM 77.2 °F - 61.9 °F 59% 30.24 in 10.0 mi ENE 5.8 mph - N/A   Clear
11:55 AM 77.5 °F - 61.7 °F 58% 30.24 in 10.0 mi East 3.5 mph - N/A   Scattered Clouds
12:15 PM 79.5 °F - 64.2 °F 59% 30.23 in 10.0 mi NE 5.8 mph - N/A   Scattered Clouds
12:35 PM 77.0 °F - 62.4 °F 61% 30.23 in 10.0 mi Calm Calm - N/A   Mostly Cloudy
12:55 PM 77.4 °F - 61.3 °F 58% 30.23 in 10.0 mi ESE 3.5 mph - N/A   Overcast
1:15 PM 78.6 °F - 62.1 °F 57% 30.23 in 10.0 mi ENE 3.5 mph - N/A   Mostly Cloudy
1:35 PM 79.3 °F - 61.2 °F 54% 30.22 in 10.0 mi East 5.8 mph - N/A   Scattered Clouds
1:55 PM 77.9 °F - 61.5 °F 57% 30.22 in 10.0 mi East 5.8 mph - N/A   Mostly Cloudy
2:15 PM 79.2 °F - 60.1 °F 52% 30.21 in 10.0 mi ENE 4.6 mph - N/A   Scattered Clouds
2:35 PM 80.4 °F 81.2 °F 60.3 °F 50% 30.21 in 10.0 mi East 4.6 mph - N/A   Scattered Clouds
2:55 PM 79.5 °F - 59.7 °F 51% 30.21 in 10.0 mi NNE 4.6 mph - N/A   Scattered Clouds
3:15 PM 79.5 °F - 59.5 °F 50% 30.21 in 10.0 mi NNE 5.8 mph - N/A   Mostly Cloudy
3:35 PM 79.5 °F - 59.2 °F 50% 30.20 in 10.0 mi NE 4.6 mph - N/A   Scattered Clouds
3:55 PM 80.6 °F 81.2 °F 59.5 °F 49% 30.19 in 10.0 mi North 4.6 mph - N/A   Scattered Clouds
4:15 PM 80.4 °F 81.1 °F 59.9 °F 49% 30.19 in 10.0 mi North 3.5 mph - N/A   Scattered Clouds
4:35 PM 80.8 °F 81.0 °F 57.6 °F 45% 30.18 in 10.0 mi ENE 3.5 mph - N/A   Clear
4:55 PM 80.4 °F 81.1 °F 59.4 °F 49% 30.18 in 10.0 mi NNE 6.9 mph - N/A   Clear
5:15 PM 80.2 °F 80.8 °F 58.8 °F 48% 30.17 in 10.0 mi NNE 9.2 mph - N/A   Scattered Clouds
5:35 PM 80.6 °F 81.1 °F 59.2 °F 48% 30.17 in 10.0 mi NNE 5.8 mph - N/A   Scattered Clouds
5:55 PM 80.1 °F 80.7 °F 58.8 °F 48% 30.16 in 10.0 mi NNE 5.8 mph - N/A   Scattered Clouds
6:15 PM 79.7 °F - 59.2 °F 49% 30.16 in 10.0 mi NE 3.5 mph - N/A   Clear
6:35 PM 79.3 °F - 59.2 °F 50% 30.16 in 10.0 mi NE 5.8 mph - N/A   Clear
6:55 PM 78.8 °F - 58.6 °F 50% 30.16 in 10.0 mi NE 6.9 mph - N/A   Clear
7:15 PM 78.1 °F - 58.8 °F 51% 30.15 in 10.0 mi NE 4.6 mph - N/A   Clear
7:35 PM 77.2 °F - 59.5 °F 54% 30.15 in 10.0 mi NE 4.6 mph - N/A   Clear
7:55 PM 75.4 °F - 59.9 °F 58% 30.15 in 10.0 mi NE 3.5 mph - N/A   Clear
8:35 PM 71.6 °F - 61.3 °F 70% 30.16 in 10.0 mi East 3.5 mph - N/A   Clear
9:15 PM 67.1 °F - 62.1 °F 84% 30.16 in 10.0 mi East 3.5 mph - N/A   Clear
9:35 PM 66.0 °F - 61.5 °F 85% 30.16 in 10.0 mi Calm Calm - N/A   Clear
9:55 PM 64.2 °F - 61.7 °F 91% 30.16 in 10.0 mi ESE 3.5 mph - N/A   Clear
10:15 PM 63.9 °F - 61.5 °F 92% 30.17 in 10.0 mi Calm Calm - N/A   Clear
10:35 PM 62.8 °F - 61.0 °F 94% 30.17 in 10.0 mi Calm Calm - N/A   Clear
10:55 PM 62.4 °F - 60.4 °F 93% 30.17 in 10.0 mi Calm Calm - N/A   Clear
11:15 PM 62.1 °F - 60.1 °F 93% 30.17 in 10.0 mi Calm Calm - N/A   Clear
11:35 PM 61.7 °F - 59.9 °F 94% 30.17 in 10.0 mi Calm Calm - N/A   Clear
11:55 PM 60.8 °F - 59.0 °F 94% 30.17 in 10.0 mi Calm Calm - N/A   Clear